Estación de Quillota
Ultimos registro cada 15 minutos 29
| N° | Estación | Fecha / Hora | Temperatura | Humedad | Lluvia | Velocidad | Dirección | Radiación | Presion |
| 29 | Quillota | 06-09-2026 07:00 | 2,8 | 91 | 0 | 0 | 165 | 7 | 1012,1 |
| 28 | Quillota | 06-09-2026 06:45 | 4,1 | 91 | 0 | 0 | 165 | 0 | 1011,8 |
| 27 | Quillota | 06-09-2026 06:30 | 4,8 | 94 | 0 | 0,4 | 166 | 0 | 1011,8 |
| 26 | Quillota | 06-09-2026 06:15 | 4,5 | 94 | 0 | 0,9 | 171 | 0 | 1011,8 |
| 25 | Quillota | 06-09-2026 06:00 | 3,6 | 94 | 0 | 0 | 163 | 0 | 1011,6 |
| 24 | Quillota | 06-09-2026 05:45 | 2,3 | 91 | 0 | 0 | 163 | 0 | 1011,5 |
| 23 | Quillota | 06-09-2026 05:30 | 3,5 | 92 | 0 | 0 | 163 | 0 | 1011,5 |
| 22 | Quillota | 06-09-2026 05:15 | 3,2 | 94 | 0 | 0 | 164 | 0 | 1011,4 |
| 21 | Quillota | 06-09-2026 05:00 | 2,9 | 93 | 0 | 0 | 125 | 0 | 1011,5 |
| 20 | Quillota | 06-09-2026 04:45 | 2,2 | 92 | 0 | 0 | 125 | 0 | 1011,5 |
| 19 | Quillota | 06-09-2026 04:30 | 2,4 | 92 | 0 | 0 | 125 | 0 | 1011,7 |
| 18 | Quillota | 06-09-2026 04:15 | 2,9 | 91 | 0 | 0 | 125 | 0 | 1012 |
| 17 | Quillota | 06-09-2026 04:00 | 3,2 | 92 | 0 | 0 | 125 | 0 | 1011,7 |
| 16 | Quillota | 06-09-2026 03:45 | 4,3 | 92 | 0 | 0 | 125 | 0 | 1011,9 |
| 15 | Quillota | 06-09-2026 03:30 | 4,6 | 93 | 0 | 0 | 126 | 0 | 1011,9 |
| 14 | Quillota | 06-09-2026 03:15 | 3,8 | 91 | 0 | 0 | 147 | 0 | 1012 |
| 13 | Quillota | 06-09-2026 03:00 | 4,6 | 92 | 0 | 0 | 147 | 0 | 1012,3 |
| 12 | Quillota | 06-09-2026 02:45 | 3,9 | 92 | 0 | 0 | 147 | 0 | 1012,4 |
| 11 | Quillota | 06-09-2026 02:30 | 4,5 | 93 | 0 | 0 | 147 | 0 | 1012,7 |
| 10 | Quillota | 06-09-2026 02:15 | 4,3 | 92 | 0 | 0 | 147 | 0 | 1012,9 |
| 9 | Quillota | 06-09-2026 02:00 | 4,1 | 91 | 0 | 0 | 147 | 0 | 1013,1 |
| 8 | Quillota | 06-09-2026 01:45 | 4,5 | 91 | 0 | 0 | 147 | 0 | 1013,2 |
| 7 | Quillota | 06-09-2026 01:30 | 4,7 | 92 | 0 | 0 | 86 | 0 | 1013,4 |
| 6 | Quillota | 06-09-2026 01:15 | 4,8 | 91 | 0 | 0 | 85 | 0 | 1013,5 |
| 5 | Quillota | 06-09-2026 01:00 | 5,4 | 90 | 0 | 0 | 86 | 0 | 1013,5 |
| 4 | Quillota | 06-09-2026 00:45 | 5 | 91 | 0 | 0 | 86 | 0 | 1013,6 |
| 3 | Quillota | 06-09-2026 00:30 | 4,8 | 90 | 0 | 0 | 86 | 0 | 1013,7 |
| 2 | Quillota | 06-09-2026 00:15 | 5,6 | 90 | 0 | 0 | 86 | 0 | 1013,7 |
| 1 | Quillota | 06-09-2026 00:00 | 5,9 | 91 | 0 | 0 | 83 | 0 | 1013,8 |